TimeCDT,TemperatureF,Dew PointF,Humidity,Sea Level PressureIn,VisibilityMPH,Wind Direction,Wind SpeedMPH,Gust SpeedMPH,PrecipitationIn,Events,Conditions,WindDirDegrees,DateUTC
12:53 AM,60.1,55.0,83,30.07,10.0,Calm,Calm,-,N/A,,Clear,0,2013-07-01 05:53:00
1:53 AM,60.1,55.0,83,30.07,10.0,NW,4.6,-,N/A,,Clear,320,2013-07-01 06:53:00
2:53 AM,59.0,55.0,87,30.07,10.0,Calm,Calm,-,N/A,,Clear,0,2013-07-01 07:53:00
3:53 AM,57.9,54.0,87,30.08,10.0,Calm,Calm,-,N/A,,Clear,0,2013-07-01 08:53:00
4:53 AM,57.9,54.0,87,30.09,10.0,Calm,Calm,-,N/A,,Clear,0,2013-07-01 09:53:00
5:53 AM,55.9,54.0,93,30.12,10.0,Calm,Calm,-,N/A,,Clear,0,2013-07-01 10:53:00
6:53 AM,59.0,55.9,90,30.13,10.0,Calm,Calm,-,N/A,,Clear,0,2013-07-01 11:53:00
7:53 AM,63.0,55.9,78,30.14,10.0,NNW,3.5,-,N/A,,Clear,340,2013-07-01 12:53:00
8:53 AM,66.9,55.9,68,30.16,10.0,Calm,Calm,-,N/A,,Clear,0,2013-07-01 13:53:00
9:53 AM,70.0,57.0,63,30.16,10.0,WNW,4.6,-,N/A,,Clear,300,2013-07-01 14:53:00
10:53 AM,73.9,57.9,57,30.15,10.0,WNW,4.6,-,N/A,,Clear,300,2013-07-01 15:53:00
11:53 AM,78.1,55.0,45,30.14,10.0,NW,5.8,-,N/A,,Clear,320,2013-07-01 16:53:00
12:53 PM,80.1,52.0,38,30.13,10.0,Variable,5.8,-,N/A,,Clear,0,2013-07-01 17:53:00
1:53 PM,82.0,51.1,34,30.12,10.0,Variable,4.6,-,N/A,,Clear,0,2013-07-01 18:53:00
2:53 PM,82.9,51.1,33,30.11,10.0,Variable,4.6,-,N/A,,Partly Cloudy,0,2013-07-01 19:53:00
3:53 PM,84.0,52.0,33,30.10,10.0,NNE,4.6,-,N/A,,Scattered Clouds,20,2013-07-01 20:53:00
4:53 PM,84.0,52.0,33,30.10,10.0,NE,6.9,-,N/A,,Partly Cloudy,40,2013-07-01 21:53:00
5:53 PM,82.9,52.0,34,30.09,10.0,ENE,9.2,-,N/A,,Partly Cloudy,70,2013-07-01 22:53:00
6:53 PM,82.0,53.1,37,30.09,10.0,NE,4.6,-,N/A,,Clear,50,2013-07-01 23:53:00
7:53 PM,79.0,55.9,45,30.09,10.0,North,3.5,-,N/A,,Partly Cloudy,360,2013-07-02 00:53:00
8:53 PM,73.0,55.0,53,30.08,10.0,NNE,5.8,-,N/A,,Clear,30,2013-07-02 01:53:00
9:53 PM,73.0,55.0,53,30.09,10.0,ESE,3.5,-,N/A,,Partly Cloudy,120,2013-07-02 02:53:00
10:53 PM,69.1,57.0,65,30.09,10.0,Calm,Calm,-,N/A,,Partly Cloudy,0,2013-07-02 03:53:00
11:53 PM,66.0,59.0,78,30.09,10.0,Calm,Calm,-,N/A,,Clear,0,2013-07-02 04:53:00